Wind_Speed
57 60 64 65 64 66 65 67 65 67 66 62 63 62 51 49 49 46 45 44 39 37 36 35 33 33 37 39 40 44 47 47 43 41 39 38 35 35 32 29 27 27 26 23 23 23 22 23 25 34 38 53 56 57
57 61 65 66 64 64 67 68 65 62 60 57 59 66 56 51 50 49 41 40 41 41 36 36 36 38 39 42 45 43 43 42 44 40 39 38 36 36 33 30 26 24 25 25 25 26 26 25 26 30 38 44 56 60
57 61 66 67 65 64 67 66 65 62 58 56 51 51 58 52 51 48 45 44 41 38 40 44 42 41 40 44 43 40 41 46 41 41 40 39 37 34 33 29 26 24 24 27 28 27 28 29 29 28 30 39 43 50
55 62 65 68 67 64 65 66 65 63 58 54 51 50 49 49 50 45 48 47 47 46 47 45 45 41 45 39 38 42 44 41 41 42 40 38 38 34 33 32 28 27 27 26 30 31 30 31 32 31 31 33 37 45
54 61 65 68 67 63 62 65 66 63 58 54 51 51 49 46 46 41 44 47 49 48 48 47 45 40 36 38 42 43 42 43 42 39 39 38 37 35 35 34 31 30 29 28 28 33 33 33 33 34 35 36 35 37
51 57 63 66 68 66 62 64 65 65 63 61 58 54 54 52 49 44 45 47 48 50 48 39 35 35 40 43 41 42 42 42 38 39 38 38 37 37 36 36 34 35 33 31 30 31 35 35 35 37 36 37 37 37
56 59 64 68 70 68 64 61 62 63 66 64 60 57 55 52 51 52 51 49 47 44 35 36 40 38 39 38 38 39 40 37 36 36 35 36 38 39 37 38 38 38 36 34 33 30 31 34 35 36 38 38 38 39
55 60 63 67 68 70 67 63 62 61 61 62 62 60 56 55 51 53 50 46 43 41 41 42 39 39 37 36 39 39 37 36 35 35 37 39 40 38 38 40 39 39 39 36 31 30 29 29 31 34 37 39 38 40
52 58 60 63 66 69 68 65 62 61 59 59 58 58 57 56 55 56 55 50 48 44 41 40 36 34 35 38 39 37 35 35 35 37 39 39 38 38 39 40 40 39 37 32 29 28 28 29 29 31 34 36 37 36
50 55 58 61 63 65 67 66 63 60 58 55 56 57 55 53 50 49 44 40 38 38 36 38 36 36 37 38 37 35 33 34 37 38 38 38 40 40 40 41 39 35 31 28 26 26 26 26 27 29 32 34 35 35
47 50 53 58 61 63 64 66 64 61 60 59 57 57 54 51 48 46 43 41 40 39 38 39 38 37 36 37 35 35 35 37 38 38 38 36 42 42 41 39 33 29 26 24 24 24 24 24 25 26 29 32 35 36
44 48 50 53 55 57 60 63 65 65 64 61 59 56 54 52 50 47 46 44 44 41 41 38 37 36 36 35 35 35 37 38 37 36 37 38 43 42 37 33 27 24 23 22 22 22 22 23 25 27 29 31 34 36
39 43 46 46 47 53 59 65 65 64 63 59 58 56 53 51 51 50 50 53 49 39 37 36 36 37 36 36 37 37 36 37 36 36 36 40 40 36 29 25 22 21 20 20 20 21 21 22 23 24 26 28 30 32
34 37 39 38 42 51 57 60 63 62 61 60 59 58 55 52 52 54 56 49 46 41 39 39 39 39 37 36 36 35 36 36 37 36 39 36 33 27 22 20 19 17 18 18 18 19 21 22 24 25 26 27 28 30
30 32 34 37 40 44 49 53 57 59 58 57 58 55 53 54 54 57 56 49 42 40 39 39 39 39 35 36 35 35 36 38 35 38 34 29 24 20 18 16 15 16 16 17 18 19 20 21 23 25 27 29 30 31
31 32 34 37 40 43 45 48 51 54 53 50 53 54 53 53 53 52 50 43 40 41 39 38 37 36 35 35 36 35 37 34 36 31 26 21 18 16 14 14 14 14 14 15 15 17 19 20 21 23 25 28 30 31
29 30 31 33 35 37 43 46 45 46 45 43 43 48 51 52 51 51 47 45 44 43 42 39 38 36 35 36 36 34 35 33 28 23 19 17 15 13 13 11 9 9 12 16 13 15 17 18 20 22 24 26 27 28
29 29 29 31 36 40 41 40 39 39 40 42 42 44 46 45 47 48 46 47 45 42 40 39 36 35 37 36 31 34 29 25 21 19 16 14 12 10 7 7 11 10 7 10 12 15 18 22 26 29 31 32 32 31
26 26 26 27 30 32 35 37 37 38 40 39 38 37 38 40 43 44 42 41 40 38 37 35 35 37 34 29 32 24 21 19 18 16 14 13 8 6 9 9 4 5 8 11 15 19 22 25 28 30 31 32 35 37
26 27 26 27 28 30 31 33 33 33 31 31 31 33 35 37 37 37 36 35 33 33 33 36 36 28 29 27 22 21 21 19 16 14 14 10 9 10 7 2 3 7 11 15 19 22 25 28 30 33 35 36 37 38
25 27 27 27 26 26 25 25 26 27 28 30 31 32 32 33 33 32 32 34 36 35 35 26 27 29 24 23 22 22 20 17 16 16 12 10 11 7 5 5 5 8 12 14 17 20 24 28 30 33 35 37 39 40
22 23 24 25 26 26 27 27 28 28 28 29 30 32 34 34 34 35 35 33 31 29 27 29 26 25 24 24 23 21 19 19 18 15 14 12 10 7 5 3 4 7 10 14 17 21 25 28 32 34 38 40 42 44
23 25 26 26 27 28 29 29 29 29 30 30 31 31 30 29 28 28 27 24 25 26 24 25 25 25 25 24 22 22 22 19 18 16 15 12 8 4 1 1 5 9 12 14 17 21 24 28 33 37 41 43 46 48
26 26 27 29 29 29 29 28 27 27 25 24 25 25 25 25 26 26 26 26 26 27 27 26 26 25 24 24 25 22 20 19 18 16 12 9 5 3 2 5 8 12 16 18 21 24 27 30 33 36 39 42 44 47
23 23 22 22 23 23 24 24 24 24 24 24 25 25 26 26 26 26 27 27 27 28 27 27 27 27 26 22 23 22 22 21 17 13 9 8 6 4 6 10 15 18 20 23 26 29 31 33 35 38 41 43 45 46
19 20 22 22 22 24 25 25 25 26 26 27 26 26 27 27 28 27 27 28 28 28 29 29 27 25 25 24 25 24 21 17 14 12 10 7 7 10 13 16 19 22 24 27 31 34 37 39 41 43 45 46 48 48
23 21 19 19 19 20 21 23 24 25 26 27 28 29 29 28 27 28 29 30 31 30 27 26 26 25 25 24 22 18 16 15 14 12 11 12 13 16 19 21 23 26 28 32 35 38 41 44 47 49 50 50 51 52
22 23 24 23 22 20 20 22 23 24 24 24 25 25 26 26 27 28 30 28 26 25 24 24 24 24 23 21 18 17 15 14 14 15 15 16 18 20 24 27 29 31 32 35 37 40 43 45 48 53 57 57 56 56
20 20 21 22 22 23 22 19 18 19 21 24 26 28 30 30 30 29 28 26 25 24 24 23 23 20 18 16 15 16 16 17 18 19 20 21 23 26 30 32 34 36 37 40 42 44 46 48 49 51 54 57 59 59
18 18 20 20 20 21 22 23 24 26 28 31 32 32 31 29 28 26 25 24 23 22 21 20 19 17 17 18 18 18 19 20 22 23 25 27 29 32 34 36 38 40 42 45 47 49 50 52 52 54 56 56 58 59
18 20 22 24 25 26 27 30 32 32 32 30 28 26 25 23 23 22 21 21 20 20 19 19 20 19 19 20 21 22 23 24 26 28 30 32 34 36 38 40 42 43 46 48 50 52 54 55 56 58 59 60 60 60
17 18 19 21 24 28 30 29 29 27 26 24 23 23 22 22 22 21 20 20 20 20 19 20 21 22 23 24 24 26 28 29 32 34 36 38 40 41 43 45 47 49 50 52 53 55 56 57 59 60 61 62 62 61
15 16 18 20 22 24 23 22 21 21 21 21 21 21 21 20 20 19 20 20 21 21 23 24 25 26 27 28 29 31 33 35 37 38 40 43 45 47 48 49 51 52 54 55 56 58 59 60 61 62 63 63 63 62
Wind_Direction
208 207 208 208 210 210 212 213 217 221 222 221 223 221 225 226 232 231 223 224 224 224 231 238 250 257 259 266 275 286 290 294 294 303 304 303 303 305 304 300 297 295 294 292 286 277 268 257 232 217 218 223 225 226
207 205 206 207 208 208 212 213 215 219 221 219 220 223 227 222 218 218 222 225 230 233 238 245 249 254 265 267 279 285 288 292 297 298 300 299 298 304 302 300 294 296 297 293 290 284 273 266 252 231 221 221 226 233
205 203 204 206 208 207 211 213 215 219 220 219 217 219 220 221 213 220 225 226 229 235 242 243 250 262 265 274 278 286 290 291 291 293 294 294 297 299 297 295 292 289 295 294 291 285 276 270 265 253 238 228 226 231
203 202 203 204 207 207 207 213 217 220 222 221 220 219 222 223 223 228 225 225 230 236 241 248 256 262 268 273 281 279 283 284 287 289 290 291 294 294 293 292 293 291 289 288 286 283 279 272 268 265 255 242 234 230
202 201 202 203 206 208 205 209 213 216 216 221 218 223 226 223 227 230 228 230 234 238 243 252 261 261 267 274 275 278 278 283 285 286 286 287 290 290 290 288 291 289 289 290 285 281 277 273 269 262 261 260 253 243
201 201 202 202 205 209 207 207 212 214 215 217 220 220 226 230 229 231 230 231 232 241 248 252 263 267 267 271 270 273 279 281 282 284 286 287 287 290 288 287 291 291 294 294 287 279 274 272 269 269 266 263 261 260
199 200 201 203 204 209 211 210 210 211 214 217 222 224 224 227 225 228 236 234 238 246 257 257 263 263 260 263 270 274 277 279 281 283 284 287 290 291 291 290 291 293 295 295 289 281 275 272 272 271 270 269 269 268
200 200 201 203 204 207 211 211 212 214 214 215 218 220 225 229 231 235 238 241 245 250 256 254 252 254 259 268 275 276 276 277 278 280 286 290 291 291 291 290 292 294 297 295 288 282 276 271 269 269 268 268 268 266
200 202 202 204 205 206 210 212 213 215 216 217 219 222 226 231 233 233 236 240 243 245 246 246 252 258 264 271 274 273 273 276 278 285 289 289 290 291 292 293 295 297 295 291 286 281 277 274 270 267 267 269 272 270
200 203 202 203 207 207 209 213 215 216 218 219 221 224 225 225 226 229 233 238 237 240 247 251 257 263 269 271 272 272 274 277 282 286 287 290 293 294 295 296 297 296 292 288 286 283 280 277 274 271 272 272 272 273
201 205 204 204 206 207 208 212 216 217 220 222 223 225 225 227 229 233 236 238 242 246 250 255 261 266 268 269 269 272 276 281 284 285 287 293 295 295 297 298 297 293 289 288 285 283 281 279 276 274 272 271 270 270
200 203 205 206 206 206 207 210 214 217 219 221 223 225 227 230 233 236 240 244 247 251 258 257 259 260 264 269 272 275 279 281 282 285 292 296 293 295 298 295 295 292 292 290 286 285 284 282 281 279 277 275 275 275
201 202 205 206 202 202 206 210 215 216 219 222 225 228 229 232 236 240 243 246 250 251 253 256 258 262 265 268 271 275 278 279 284 289 294 291 292 295 294 292 292 291 288 287 289 291 291 291 291 289 287 285 284 283
199 201 204 202 203 204 207 209 214 218 218 219 222 225 228 231 235 238 243 245 250 250 254 256 257 259 263 266 270 273 276 284 288 292 291 292 292 292 288 289 286 286 287 290 292 294 296 298 299 299 298 297 295 292
195 195 196 197 197 202 208 211 213 217 220 218 220 223 225 228 232 237 241 243 243 246 247 251 255 259 262 264 268 274 281 284 289 287 290 291 285 284 284 283 285 289 295 302 305 307 310 312 312 311 309 308 307 305
190 193 193 194 195 198 203 208 212 217 221 219 217 221 223 225 230 234 239 240 241 244 246 248 252 256 260 265 270 276 279 284 283 286 285 278 276 272 271 280 286 294 302 306 307 306 307 311 314 313 312 311 309 307
190 192 192 191 191 192 201 207 209 213 216 220 220 220 223 225 228 232 234 236 237 241 244 247 251 256 262 266 270 277 278 277 279 274 266 262 257 261 268 278 289 288 289 299 312 324 329 331 329 327 325 322 318 314
186 188 188 190 191 195 202 205 206 208 211 215 216 216 220 224 228 231 232 236 238 241 245 249 254 258 260 264 272 269 271 270 261 254 249 245 248 252 257 258 274 287 314 333 342 346 346 347 348 345 343 339 338 334
182 185 185 186 191 196 198 199 202 205 207 208 210 211 214 218 224 228 231 235 239 242 246 250 252 253 256 263 259 260 253 244 238 231 230 235 216 218 247 259 280 332 352 2 359 355 352 348 346 344 343 341 340 338
176 177 179 182 185 191 196 200 203 205 206 205 206 208 211 215 220 223 227 230 234 239 241 241 242 248 248 245 242 234 227 222 216 216 215 198 200 233 227 232 51 28 13 9 5 360 354 350 347 345 343 341 340 338
169 173 175 176 180 183 187 193 196 198 199 200 202 203 206 211 215 217 220 222 224 226 231 236 233 231 228 223 219 213 207 205 206 198 184 203 194 199 139 91 48 21 12 7 2 354 346 344 344 342 342 341 340 340
158 162 167 169 169 171 173 178 184 189 190 193 197 200 202 204 207 211 216 218 219 220 218 217 214 211 209 206 203 200 193 189 185 182 184 179 162 132 109 61 19 4 354 346 346 342 339 341 343 344 343 342 341 339
155 159 163 166 169 170 172 175 176 180 185 189 193 195 198 199 202 206 206 206 206 206 205 201 198 197 195 195 190 184 183 183 181 180 178 164 150 143 142 356 346 346 341 332 331 334 339 341 342 342 342 341 340 340
160 161 166 169 170 174 175 176 178 181 183 184 186 187 187 188 190 191 191 191 189 190 188 187 188 188 183 179 177 180 178 176 176 172 169 164 177 197 281 324 321 312 306 309 320 328 331 335 337 337 337 336 335 334
158 159 161 164 165 167 167 169 171 174 177 178 180 181 180 180 178 178 180 181 180 181 181 178 176 173 170 174 173 177 176 174 170 166 181 198 216 263 290 296 300 302 306 315 322 325 325 326 328 330 331 332 333 332
142 148 152 158 162 165 167 168 169 170 171 169 168 167 169 171 172 174 176 176 174 171 171 169 167 170 173 177 176 176 174 176 182 195 207 225 254 273 279 285 293 303 312 317 320 322 323 325 326 327 328 328 330 330
141 142 146 155 159 163 165 168 168 166 165 164 166 169 170 170 171 171 169 170 169 165 165 166 170 174 175 175 176 178 185 197 206 219 237 256 270 279 286 293 298 305 311 315 317 318 320 323 324 324 326 328 329 331
145 145 146 147 152 158 162 164 164 164 165 168 169 168 166 165 163 163 160 158 160 162 166 171 174 178 181 184 187 194 206 217 232 245 258 271 280 287 290 296 301 305 308 311 314 317 319 321 321 322 324 326 328 329
145 148 153 154 155 155 157 162 162 164 163 158 153 152 154 157 155 155 159 162 165 169 174 179 183 187 190 196 206 214 225 238 251 262 272 280 287 290 293 298 301 304 309 312 314 316 317 318 319 320 322 323 325 327
148 150 149 147 147 148 151 154 153 156 157 157 159 160 158 158 162 164 167 171 175 178 182 187 193 200 208 217 226 237 248 258 266 273 280 286 289 291 295 298 302 306 309 311 312 314 315 317 318 320 321 322 323 325
149 150 150 151 151 153 155 156 158 161 162 162 161 161 163 166 170 174 178 181 186 192 199 207 215 223 231 239 245 252 260 268 274 279 283 288 291 294 298 301 304 306 307 309 310 312 314 316 318 319 321 322 323 324
150 152 154 157 159 162 163 166 166 166 165 166 170 171 174 180 185 189 193 197 204 212 221 229 236 241 248 255 263 269 274 278 283 287 291 294 297 299 301 303 304 305 307 308 310 311 314 315 316 318 320 321 322 323
158 163 167 169 173 174 171 173 176 179 180 182 185 190 194 201 205 210 215 219 225 231 237 242 247 253 258 262 267 271 274 278 282 286 289 293 295 297 299 300 302 304 306 308 310 312 313 314 316 317 318 319 320 321
Height
10017 10030 10044 10058 10072 10085 10097 10111 10122 10134 10148 10161 10174 10185 10197 10206 10213 10219 10225 10233 10242 10249 10255 10260 10264 10267 10270 10272 10274 10273 10271 10270 10268 10264 10260 10258 10255 10252 10250 10248 10245 10241 10240 10238 10237 10236 10237 10239 10243 10242 10245 10247 10249 10251
10006 10020 10033 10048 10062 10076 10088 10101 10114 10126 10138 10152 10164 10178 10188 10197 10204 10212 10219 10227 10234 10240 10246 10250 10254 10258 10261 10263 10264 10262 10260 10259 10257 10254 10252 10249 10246 10244 10243 10241 10239 10236 10233 10231 10230 10229 10229 10231 10233 10237 10237 10239 10240 10241
9996 10011 10025 10040 10053 10067 10079 10093 10105 10117 10129 10142 10154 10167 10177 10186 10195 10204 10212 10220 10226 10232 10237 10241 10246 10249 10252 10253 10252 10251 10251 10249 10247 10245 10243 10240 10238 10237 10236 10234 10232 10230 10227 10224 10222 10222 10221 10222 10223 10226 10229 10231 10233 10236
9988 10002 10017 10031 10044 10058 10073 10085 10097 10109 10121 10133 10146 10156 10166 10175 10186 10194 10203 10210 10217 10222 10227 10232 10236 10240 10242 10242 10242 10242 10241 10239 10237 10236 10233 10232 10230 10229 10227 10226 10225 10222 10219 10217 10215 10213 10212 10212 10212 10213 10216 10218 10221 10223
9982 9995 10009 10023 10037 10050 10066 10079 10090 10102 10114 10124 10135 10145 10154 10165 10174 10184 10193 10200 10206 10213 10218 10223 10227 10229 10229 10230 10232 10232 10230 10229 10228 10226 10224 10223 10221 10220 10218 10216 10216 10213 10210 10208 10206 10204 10202 10202 10202 10203 10203 10205 10207 10210
9978 9990 10003 10017 10029 10041 10056 10071 10081 10093 10104 10115 10126 10136 10145 10155 10165 10174 10183 10190 10198 10204 10209 10213 10215 10217 10219 10221 10221 10221 10221 10219 10217 10216 10215 10213 10212 10211 10209 10207 10206 10202 10200 10198 10197 10194 10192 10191 10191 10191 10192 10193 10195 10197
9969 9981 9995 10008 10021 10034 10046 10060 10073 10084 10096 10107 10117 10127 10137 10147 10158 10166 10172 10180 10188 10194 10197 10201 10206 10208 10209 10211 10212 10212 10211 10210 10208 10207 10206 10204 10203 10200 10199 10197 10195 10191 10189 10188 10185 10184 10183 10182 10181 10181 10182 10182 10183 10183
9962 9974 9986 10000 10013 10026 10038 10051 10063 10075 10086 10098 10109 10120 10129 10140 10149 10156 10163 10170 10177 10184 10189 10193 10195 10197 10199 10202 10202 10202 10201 10200 10200 10199 10197 10195 10193 10192 10190 10186 10184 10181 10177 10176 10175 10173 10172 10172 10172 10172 10171 10171 10171 10171
9958 9968 9980 9992 10006 10019 10031 10043 10055 10066 10077 10090 10101 10111 10121 10130 10139 10146 10154 10163 10170 10175 10178 10180 10185 10188 10190 10192 10192 10192 10192 10191 10191 10190 10188 10186 10183 10182 10179 10176 10173 10170 10167 10165 10164 10164 10163 10162 10162 10161 10160 10160 10160 10161
9953 9962 9974 9987 9999 10013 10025 10036 10047 10058 10070 10081 10092 10102 10111 10120 10129 10136 10144 10151 10158 10162 10166 10170 10176 10179 10181 10181 10182 10183 10183 10183 10182 10181 10179 10177 10173 10170 10168 10165 10163 10160 10158 10156 10155 10154 10154 10154 10153 10153 10151 10150 10149 10149
9948 9957 9969 9981 9992 10005 10018 10030 10040 10052 10061 10070 10080 10090 10100 10110 10118 10125 10133 10140 10145 10150 10157 10162 10166 10169 10171 10172 10173 10174 10174 10174 10173 10172 10170 10169 10162 10158 10158 10155 10153 10151 10149 10148 10147 10147 10146 10144 10143 10142 10140 10139 10137 10136
9945 9954 9963 9974 9987 10000 10012 10023 10031 10040 10049 10060 10071 10082 10093 10102 10110 10117 10124 10129 10133 10141 10147 10152 10156 10159 10161 10164 10165 10165 10165 10164 10164 10163 10161 10158 10152 10149 10149 10146 10144 10143 10142 10140 10139 10138 10137 10137 10136 10134 10133 10130 10128 10126
9941 9951 9959 9968 9982 9995 10004 10011 10019 10032 10042 10054 10065 10075 10085 10093 10102 10109 10111 10114 10123 10133 10139 10144 10148 10150 10153 10155 10154 10155 10156 10154 10154 10153 10152 10148 10144 10142 10141 10139 10138 10137 10135 10134 10133 10132 10131 10129 10128 10126 10125 10123 10121 10118
9939 9948 9957 9967 9978 9987 9995 10004 10013 10023 10035 10048 10057 10066 10076 10086 10095 10098 10098 10110 10119 10125 10130 10134 10137 10140 10143 10145 10146 10147 10146 10145 10144 10144 10141 10140 10137 10135 10134 10133 10132 10131 10129 10129 10128 10126 10125 10123 10122 10119 10117 10114 10111 10109
9939 9946 9954 9963 9972 9981 9989 9999 10008 10017 10025 10039 10049 10059 10070 10078 10083 10086 10090 10100 10109 10114 10120 10124 10129 10131 10135 10136 10137 10137 10137 10136 10136 10134 10133 10133 10130 10129 10128 10127 10126 10125 10124 10123 10122 10121 10119 10117 10115 10112 10110 10106 10103 10099
9937 9944 9951 9959 9967 9975 9985 9993 10002 10010 10019 10030 10043 10052 10061 10068 10073 10078 10083 10094 10102 10105 10111 10117 10120 10123 10125 10127 10127 10129 10128 10129 10126 10127 10126 10125 10125 10124 10123 10123 10122 10121 10121 10120 10119 10117 10115 10113 10110 10107 10104 10100 10096 10092
9938 9944 9951 9958 9966 9975 9980 9987 9996 10005 10015 10024 10035 10044 10050 10058 10065 10070 10078 10085 10092 10097 10102 10107 10111 10115 10117 10117 10118 10120 10119 10119 10120 10120 10120 10120 10120 10120 10120 10120 10120 10119 10119 10118 10116 10113 10111 10108 10105 10101 10097 10093 10088 10083
9938 9944 9950 9957 9963 9969 9975 9984 9993 10001 10009 10016 10024 10033 10041 10050 10057 10062 10070 10075 10081 10087 10093 10098 10104 10107 10106 10106 10112 10110 10112 10113 10114 10114 10115 10116 10116 10117 10117 10118 10118 10118 10117 10115 10112 10110 10107 10104 10100 10096 10092 10086 10081 10076
9941 9946 9952 9958 9964 9970 9976 9982 9989 9996 10002 10010 10019 10027 10035 10042 10048 10053 10061 10068 10074 10080 10086 10091 10093 10093 10096 10102 10101 10104 10106 10107 10108 10109 10111 10113 10113 10115 10116 10116 10116 10115 10114 10112 10109 10107 10104 10101 10097 10093 10089 10084 10078 10072
9942 9947 9953 9958 9963 9969 9975 9981 9986 9993 10001 10009 10016 10023 10030 10035 10042 10048 10054 10061 10067 10073 10077 10079 10080 10087 10090 10092 10096 10097 10099 10101 10104 10106 10109 10109 10111 10114 10114 10114 10113 10112 10110 10108 10106 10104 10102 10098 10094 10090 10085 10079 10074 10068
9943 9948 9953 9959 9964 9970 9976 9983 9989 9995 10000 10006 10011 10018 10024 10029 10036 10043 10048 10053 10058 10063 10065 10073 10077 10079 10083 10086 10089 10092 10095 10098 10101 10104 10106 10108 10110 10111 10111 10111 10111 10110 10108 10107 10105 10102 10099 10095 10091 10086 10080 10074 10068 10061
9947 9951 9956 9961 9965 9970 9976 9981 9986 9991 9998 10003 10008 10014 10019 10024 10030 10036 10042 10047 10052 10058 10063 10066 10071 10074 10077 10081 10085 10088 10091 10095 10099 10101 10104 10106 10107 10108 10108 10109 10108 10107 10106 10104 10101 10099 10095 10090 10085 10080 10074 10068 10061 10054
9950 9954 9957 9962 9966 9970 9974 9979 9984 9990 9995 10000 10005 10011 10017 10023 10028 10034 10039 10045 10050 10054 10059 10063 10067 10071 10075 10079 10082 10086 10090 10094 10097 10100 10102 10104 10105 10105 10106 10106 10105 10103 10102 10100 10098 10095 10090 10085 10079 10073 10067 10061 10054 10047
9953 9957 9961 9964 9968 9972 9977 9982 9987 9992 9998 10002 10008 10012 10017 10022 10027 10032 10037 10042 10047 10051 10056 10060 10065 10070 10074 10078 10082 10086 10090 10093 10096 10099 10100 10102 10103 10103 10102 10102 10101 10100 10098 10096 10092 10088 10084 10079 10074 10069 10064 10058 10051 10043
9959 9962 9967 9971 9974 9978 9982 9986 9990 9994 9999 10003 10007 10011 10016 10021 10026 10032 10036 10040 10045 10050 10055 10059 10064 10068 10073 10078 10082 10086 10089 10092 10094 10096 10098 10099 10099 10098 10098 10097 10096 10095 10092 10088 10085 10081 10077 10073 10068 10063 10057 10051 10044 10037
9966 9969 9972 9975 9978 9982 9985 9988 9992 9996 10000 10003 10007 10012 10017 10022 10026 10030 10035 10040 10046 10050 10055 10060 10064 10069 10073 10077 10080 10084 10087 10090 10092 10094 10094 10094 10094 10094 10094 10093 10091 10088 10085 10081 10078 10073 10068 10063 10058 10052 10047 10040 10033 10026
9969 9973 9977 9981 9984 9987 9990 9993 9996 9999 10003 10006 10010 10013 10018 10022 10028 10033 10037 10042 10047 10052 10057 10061 10065 10069 10073 10077 10080 10083 10086 10088 10090 10090 10090 10090 10089 10089 10087 10086 10084 10081 10078 10074 10070 10065 10060 10054 10047 10041 10034 10028 10020 10013
9975 9977 9980 9983 9988 9992 9996 9998 10001 10003 10006 10010 10014 10018 10023 10027 10032 10037 10042 10047 10051 10056 10060 10064 10068 10071 10074 10077 10079 10082 10084 10085 10086 10086 10085 10085 10084 10083 10081 10078 10076 10073 10070 10066 10062 10057 10051 10045 10039 10031 10022 10015 10008 10001
9982 9984 9986 9988 9991 9995 9998 10003 10007 10011 10013 10016 10020 10024 10028 10033 10037 10041 10045 10049 10053 10057 10061 10065 10068 10071 10074 10077 10079 10080 10081 10082 10081 10081 10080 10079 10077 10075 10072 10070 10066 10062 10059 10054 10050 10045 10040 10034 10028 10021 10014 10005 9997 9989
9988 9990 9991 9994 9997 10000 10003 10007 10010 10015 10018 10021 10024 10027 10032 10036 10040 10044 10048 10052 10055 10059 10062 10064 10067 10069 10072 10073 10075 10076 10076 10076 10075 10074 10072 10071 10069 10067 10063 10060 10056 10052 10047 10042 10037 10032 10026 10020 10014 10008 10001 9994 9987 9978
9993 9995 9997 9998 10001 10004 10007 10011 10015 10018 10022 10026 10029 10032 10036 10040 10043 10047 10050 10053 10056 10058 10061 10063 10065 10066 10068 10069 10069 10070 10069 10068 10067 10065 10063 10061 10059 10056 10053 10049 10045 10041 10036 10031 10025 10019 10013 10007 10000 9993 9986 9978 9971 9963
10000 10002 10004 10005 10008 10010 10013 10016 10020 10023 10027 10030 10033 10035 10038 10041 10044 10047 10049 10052 10054 10056 10058 10060 10061 10062 10062 10062 10062 10061 10060 10058 10056 10054 10052 10050 10047 10044 10041 10037 10032 10028 10023 10018 10012 10006 10000 9993 9987 9980 9972 9964 9956 9949
10005 10008 10009 10011 10014 10016 10019 10022 10024 10027 10029 10032 10034 10037 10039 10041 10043 10046 10048 10050 10052 10053 10053 10054 10054 10055 10055 10055 10054 10053 10051 10049 10047 10045 10043 10040 10036 10033 10029 10025 10020 10015 10010 10004 9998 9992 9985 9978 9972 9964 9957 9949 9941 9934